| time (UTC) | temp F | wind direction | speed MPH | gust MPH | rain 1hr in | rain 24hr in | rain mn in | humidity % | barometer mb |
| 20260510194546 | 83 | 277 | 1.0 | 6.0 | 0.00 | 0.00 | 0.00 | 46 | 1012.2 |
| 20260510194334 | 83 | 292 | 1.0 | 6.0 | 0.00 | 0.00 | 0.00 | 45 | 1012.2 |
| 20260510194129 | 83 | 275 | 1.0 | 5.0 | 0.00 | 0.00 | 0.00 | 46 | 1012.2 |
| 20260510193921 | 83 | 302 | 1.0 | 5.0 | 0.00 | 0.00 | 0.00 | 47 | 1012.1 |
| 20260510193715 | 82 | 279 | 1.0 | 4.0 | 0.00 | 0.00 | 0.00 | 50 | 1012.2 |
| 20260510193323 | 82 | 263 | 0.0 | 4.0 | 0.00 | 0.00 | 0.00 | 45 | 1012.1 |
| 20260510193113 | 82 | 263 | 0.0 | 4.0 | 0.00 | 0.00 | 0.00 | 48 | 1012.1 |
| 20260510192908 | 82 | 263 | 1.0 | 4.0 | 0.00 | 0.00 | 0.00 | 47 | 1012.2 |
| 20260510192517 | 81 | 206 | 1.0 | 0.0 | 0.00 | 0.00 | 0.00 | 46 | 1012.2 |
| 20260510192311 | 81 | 254 | 1.0 | 4.0 | 0.00 | 0.00 | 0.00 | 47 | 1012.3 |
| 20260510192059 | 81 | 256 | 0.0 | 4.0 | 0.00 | 0.00 | 0.00 | 46 | 1012.2 |
| 20260510191853 | 81 | 248 | 0.0 | 4.0 | 0.00 | 0.00 | 0.00 | 46 | 1012.3 |
| 20260510191642 | 81 | 275 | 0.0 | 4.0 | 0.00 | 0.00 | 0.00 | 49 | 1012.3 |
| 20260510191441 | 81 | 272 | 0.0 | 4.0 | 0.00 | 0.00 | 0.00 | 47 | 1012.3 |
| 20260510191235 | 81 | 272 | 1.0 | 5.0 | 0.00 | 0.00 | 0.00 | 45 | 1012.2 |
| 20260510191033 | 81 | 272 | 1.0 | 5.0 | 0.00 | 0.00 | 0.00 | 45 | 1012.3 |
| 20260510190827 | 81 | 211 | 1.0 | 5.0 | 0.00 | 0.00 | 0.00 | 48 | 1012.3 |
| 20260510185925 | 79 | 184 | 0.0 | 5.0 | 0.00 | 0.00 | 0.00 | 49 | 1012.3 |
| 20260510185719 | 79 | 234 | 0.0 | 5.0 | 0.00 | 0.00 | 0.00 | 51 | 1012.3 |
| 20260510185507 | 78 | 267 | 1.0 | 5.0 | 0.00 | 0.00 | 0.00 | 49 | 1012.3 |
| 20260510185114 | 78 | 175 | 1.0 | 4.0 | 0.00 | 0.00 | 0.00 | 50 | 1012.4 |
| 20260510184725 | 78 | 171 | 1.0 | 8.0 | 0.00 | 0.00 | 0.00 | 48 | 1012.4 |
| 20260510184332 | 78 | 207 | 1.0 | 8.0 | 0.00 | 0.00 | 0.00 | 48 | 1012.5 |
| 20260510184125 | 78 | 207 | 0.0 | 8.0 | 0.00 | 0.00 | 0.00 | 49 | 1012.5 |
| 20260510183737 | 78 | 178 | 0.0 | 6.0 | 0.00 | 0.00 | 0.00 | 50 | 1012.5 |
| 20260510183536 | 78 | 245 | 0.0 | 6.0 | 0.00 | 0.00 | 0.00 | 50 | 1012.5 |
| 20260510183332 | 78 | 209 | 0.0 | 6.0 | 0.00 | 0.00 | 0.00 | 52 | 1012.6 |
| 20260510183124 | 78 | 200 | 1.0 | 6.0 | 0.00 | 0.00 | 0.00 | 50 | 1012.6 |
| 20260510182552 | 78 | 171 | 1.0 | 8.0 | 0.00 | 0.00 | 0.00 | 50 | 1012.6 |
| 20260510182344 | 78 | 157 | 1.0 | 8.0 | 0.00 | 0.00 | 0.00 | 49 | 1012.6 |
| 20260510182139 | 78 | 279 | 1.0 | 6.0 | 0.00 | 0.00 | 0.00 | 51 | 1012.6 |
| 20260510181936 | 78 | 277 | 0.0 | 6.0 | 0.00 | 0.00 | 0.00 | 53 | 1012.6 |
| 20260510181540 | 77 | 191 | 1.0 | 5.0 | 0.00 | 0.00 | 0.00 | 52 | 1012.5 |
| 20260510181335 | 77 | 163 | 1.0 | 5.0 | 0.00 | 0.00 | 0.00 | 52 | 1012.6 |
| 20260510181134 | 77 | 227 | 1.0 | 5.0 | 0.00 | 0.00 | 0.00 | 52 | 1012.5 |
| 20260510180925 | 77 | 290 | 1.0 | 5.0 | 0.00 | 0.00 | 0.00 | 52 | 1012.5 |
| 20260510180714 | 76 | 283 | 1.0 | 4.0 | 0.00 | 0.00 | 0.00 | 54 | 1012.5 |
| 20260510180512 | 76 | 281 | 1.0 | 0.0 | 0.00 | 0.00 | 0.00 | 56 | 1012.5 |
| 20260510180259 | 75 | 281 | 1.0 | 6.0 | 0.00 | 0.00 | 0.00 | 56 | 1012.5 |
| 20260510180047 | 74 | 281 | 1.0 | 6.0 | 0.00 | 0.00 | 0.00 | 57 | 1012.5 |
| 20260510175845 | 73 | 288 | 0.0 | 6.0 | 0.00 | 0.00 | 0.00 | 58 | 1012.5 |
| 20260510175449 | 72 | 272 | 0.0 | 0.0 | 0.00 | 0.00 | 0.00 | 60 | 1012.5 |
| 20260510175055 | 72 | 272 | 0.0 | 0.0 | 0.00 | 0.00 | 0.00 | 61 | 1012.5 |
| 20260510174848 | 72 | 272 | 1.0 | 4.0 | 0.00 | 0.00 | 0.00 | 63 | 1012.5 |
| 20260510174641 | 72 | 272 | 0.0 | 4.0 | 0.00 | 0.00 | 0.00 | 63 | 1012.4 |
| 20260510174434 | 71 | 251 | 0.0 | 3.0 | 0.00 | 0.00 | 0.00 | 63 | 1012.4 |
| 20260510174229 | 71 | 251 | 0.0 | 3.0 | 0.00 | 0.00 | 0.00 | 63 | 1012.5 |
| 20260510174026 | 71 | 251 | 0.0 | 3.0 | 0.00 | 0.00 | 0.00 | 63 | 1012.5 |
| 20260510173824 | 71 | 198 | 0.0 | 2.0 | 0.00 | 0.00 | 0.00 | 64 | 1012.4 |
| 20260510173436 | 70 | 184 | 0.0 | 3.0 | 0.00 | 0.00 | 0.00 | 64 | 1012.4 |
| 20260510173231 | 70 | 185 | 0.0 | 3.0 | 0.00 | 0.00 | 0.00 | 65 | 1012.5 |
| 20260510173019 | 70 | 184 | 0.0 | 3.0 | 0.00 | 0.00 | 0.00 | 65 | 1012.5 |
| 20260510172807 | 70 | 184 | 0.0 | 3.0 | 0.00 | 0.00 | 0.00 | 66 | 1012.5 |
| 20260510172558 | 69 | 236 | 0.0 | 3.0 | 0.00 | 0.00 | 0.00 | 66 | 1012.5 |
| 20260510172354 | 69 | 187 | 0.0 | 3.0 | 0.00 | 0.00 | 0.00 | 67 | 1012.5 |
| 20260510171959 | 68 | 242 | 0.0 | 3.0 | 0.00 | 0.00 | 0.00 | 69 | 1012.4 |
| 20260510171607 | 68 | 207 | 0.0 | 3.0 | 0.00 | 0.00 | 0.00 | 69 | 1012.4 |
| 20260510171215 | 67 | 186 | 0.0 | 5.0 | 0.00 | 0.00 | 0.00 | 70 | 1012.5 |
| 20260510171004 | 67 | 261 | 0.0 | 5.0 | 0.00 | 0.00 | 0.00 | 71 | 1012.5 |
| 20260510170801 | 66 | 261 | 0.0 | 5.0 | 0.00 | 0.00 | 0.00 | 73 | 1012.4 |
| 20260510170556 | 66 | 261 | 0.0 | 5.0 | 0.00 | 0.00 | 0.00 | 74 | 1012.4 |
| 20260510170355 | 65 | 261 | 1.0 | 5.0 | 0.00 | 0.00 | 0.00 | 75 | 1012.5 |
| 20260510170145 | 65 | 261 | 1.0 | 5.0 | 0.00 | 0.00 | 0.00 | 76 | 1012.5 |
| 20260510165749 | 64 | 261 | 0.0 | 5.0 | 0.00 | 0.00 | 0.00 | 79 | 1012.5 |
| 20260510165537 | 64 | 259 | 0.0 | 5.0 | 0.00 | 0.00 | 0.00 | 82 | 1012.5 |
| 20260510165334 | 64 | 252 | 0.0 | 3.0 | 0.00 | 0.00 | 0.00 | 85 | 1012.5 |
| 20260510165132 | 63 | 252 | 0.0 | 1.0 | 0.00 | 0.00 | 0.00 | 86 | 1012.5 |
| 20260510164925 | 63 | 252 | 0.0 | 0.0 | 0.00 | 0.00 | 0.00 | 86 | 1012.4 |
| 20260510164713 | 63 | 252 | 0.0 | 0.0 | 0.00 | 0.00 | 0.00 | 87 | 1012.4 |
| 20260510163950 | 62 | 252 | 0.0 | 0.0 | 0.00 | 0.00 | 0.00 | 88 | 1012.5 |
| 20260510163740 | 62 | 252 | 0.0 | 0.0 | 0.00 | 0.00 | 0.00 | 88 | 1012.4 |
| 20260510163527 | 61 | 252 | 0.0 | 0.0 | 0.00 | 0.00 | 0.00 | 88 | 1012.5 |
| 20260510163319 | 61 | 252 | 0.0 | 0.0 | 0.00 | 0.00 | 0.00 | 89 | 1012.5 |
| 20260510163116 | 61 | 252 | 0.0 | 0.0 | 0.00 | 0.00 | 0.00 | 89 | 1012.5 |
| 20260510162914 | 61 | 252 | 0.0 | 0.0 | 0.00 | 0.00 | 0.00 | 89 | 1012.5 |
| 20260510162707 | 61 | 252 | 0.0 | 0.0 | 0.00 | 0.00 | 0.00 | 89 | 1012.5 |
| 20260510162130 | 60 | 252 | 0.0 | 0.0 | 0.00 | 0.00 | 0.00 | 90 | 1012.5 |
| 20260510161920 | 60 | 252 | 0.0 | 0.0 | 0.00 | 0.00 | 0.00 | 90 | 1012.5 |
| 20260510161712 | 60 | 252 | 0.0 | 0.0 | 0.00 | 0.00 | 0.00 | 91 | 1012.5 |
| 20260510161510 | 59 | 252 | 0.0 | 0.0 | 0.00 | 0.00 | 0.00 | 91 | 1012.4 |
| 20260510161307 | 59 | 252 | 0.0 | 0.0 | 0.00 | 0.00 | 0.00 | 90 | 1012.5 |
| 20260510160914 | 59 | 252 | 0.0 | 0.0 | 0.00 | 0.00 | 0.00 | 90 | 1012.5 |
| 20260510160710 | 59 | 252 | 0.0 | 0.0 | 0.00 | 0.00 | 0.00 | 90 | 1012.4 |
| 20260510160132 | 58 | 252 | 0.0 | 0.0 | 0.00 | 0.00 | 0.00 | 90 | 1012.4 |
| 20260510155735 | 58 | 252 | 0.0 | 0.0 | 0.00 | 0.00 | 0.00 | 90 | 1012.4 |
| 20260510155529 | 57 | 252 | 0.0 | 0.0 | 0.00 | 0.00 | 0.00 | 90 | 1012.4 |
| 20260510155324 | 57 | 252 | 0.0 | 0.0 | 0.00 | 0.00 | 0.00 | 90 | 1012.4 |
| 20260510155115 | 57 | 252 | 0.0 | 0.0 | 0.00 | 0.00 | 0.00 | 90 | 1012.4 |
| 20260510154911 | 57 | 252 | 0.0 | 0.0 | 0.00 | 0.00 | 0.00 | 90 | 1012.4 |
| 20260510154706 | 56 | 252 | 0.0 | 0.0 | 0.00 | 0.00 | 0.00 | 90 | 1012.4 |
| 20260510154505 | 56 | 252 | 0.0 | 0.0 | 0.00 | 0.00 | 0.00 | 90 | 1012.4 |
| 20260510154256 | 56 | 252 | 0.0 | 0.0 | 0.00 | 0.00 | 0.00 | 89 | 1012.3 |
| 20260510154045 | 56 | 252 | 0.0 | 0.0 | 0.00 | 0.00 | 0.00 | 89 | 1012.4 |
| 20260510153837 | 56 | 252 | 0.0 | 0.0 | 0.00 | 0.00 | 0.00 | 89 | 1012.4 |
| 20260510153634 | 55 | 252 | 0.0 | 0.0 | 0.00 | 0.00 | 0.00 | 89 | 1012.3 |
| 20260510153433 | 55 | 252 | 0.0 | 0.0 | 0.00 | 0.00 | 0.00 | 89 | 1012.3 |
| 20260510152851 | 55 | 252 | 0.0 | 0.0 | 0.00 | 0.00 | 0.00 | 89 | 1012.3 |
| 20260510152637 | 54 | 252 | 0.0 | 0.0 | 0.00 | 0.00 | 0.00 | 89 | 1012.3 |
| 20260510152428 | 54 | 252 | 0.0 | 0.0 | 0.00 | 0.00 | 0.00 | 89 | 1012.3 |
| 20260510152223 | 54 | 252 | 0.0 | 0.0 | 0.00 | 0.00 | 0.00 | 88 | 1012.3 |
| 20260510152021 | 54 | 252 | 0.0 | 0.0 | 0.00 | 0.00 | 0.00 | 88 | 1012.3 |
| 20260510151624 | 53 | 252 | 0.0 | 0.0 | 0.00 | 0.00 | 0.00 | 87 | 1012.4 |
| 20260510151413 | 53 | 252 | 0.0 | 0.0 | 0.00 | 0.00 | 0.00 | 87 | 1012.3 |
| 20260510151209 | 53 | 252 | 0.0 | 0.0 | 0.00 | 0.00 | 0.00 | 87 | 1012.3 |
| 20260510151000 | 53 | 252 | 0.0 | 0.0 | 0.00 | 0.00 | 0.00 | 87 | 1012.3 |
| 20260510150756 | 53 | 252 | 0.0 | 0.0 | 0.00 | 0.00 | 0.00 | 87 | 1012.4 |
| 20260510150550 | 53 | 252 | 0.0 | 0.0 | 0.00 | 0.00 | 0.00 | 87 | 1012.3 |
| 20260510150338 | 53 | 252 | 0.0 | 0.0 | 0.00 | 0.00 | 0.00 | 87 | 1012.3 |
| 20260510150131 | 53 | 252 | 0.0 | 0.0 | 0.00 | 0.00 | 0.00 | 87 | 1012.4 |
| 20260510145734 | 53 | 252 | 0.0 | 0.0 | 0.00 | 0.00 | 0.00 | 87 | 1012.3 |
| 20260510145529 | 52 | 252 | 0.0 | 0.0 | 0.00 | 0.00 | 0.00 | 87 | 1012.4 |
| 20260510145325 | 52 | 252 | 0.0 | 0.0 | 0.00 | 0.00 | 0.00 | 87 | 1012.3 |
| 20260510145123 | 52 | 252 | 0.0 | 0.0 | 0.00 | 0.00 | 0.00 | 87 | 1012.3 |
| 20260510144913 | 52 | 252 | 0.0 | 0.0 | 0.00 | 0.00 | 0.00 | 87 | 1012.3 |
| 20260510144709 | 52 | 252 | 0.0 | 0.0 | 0.00 | 0.00 | 0.00 | 87 | 1012.3 |
| 20260510144500 | 52 | 252 | 0.0 | 0.0 | 0.00 | 0.00 | 0.00 | 87 | 1012.3 |
| 20260510144248 | 52 | 252 | 0.0 | 0.0 | 0.00 | 0.00 | 0.00 | 86 | 1012.3 |
| 20260510143850 | 52 | 252 | 0.0 | 0.0 | 0.00 | 0.00 | 0.00 | 86 | 1012.3 |
| 20260510143640 | 52 | 252 | 0.0 | 0.0 | 0.00 | 0.00 | 0.00 | 86 | 1012.3 |
| 20260510143439 | 52 | 252 | 0.0 | 0.0 | 0.00 | 0.00 | 0.00 | 86 | 1012.3 |
| 20260510143228 | 52 | 252 | 0.0 | 0.0 | 0.00 | 0.00 | 0.00 | 86 | 1012.3 |
| 20260510143018 | 52 | 252 | 0.0 | 0.0 | 0.00 | 0.00 | 0.00 | 86 | 1012.3 |
| 20260510142807 | 52 | 252 | 0.0 | 0.0 | 0.00 | 0.00 | 0.00 | 86 | 1012.3 |
| 20260510142605 | 52 | 252 | 0.0 | 0.0 | 0.00 | 0.00 | 0.00 | 86 | 1012.2 |
| 20260510142354 | 52 | 252 | 0.0 | 0.0 | 0.00 | 0.00 | 0.00 | 86 | 1012.3 |
| 20260510142149 | 52 | 252 | 0.0 | 0.0 | 0.00 | 0.00 | 0.00 | 86 | 1012.2 |
| 20260510141941 | 52 | 252 | 0.0 | 0.0 | 0.00 | 0.00 | 0.00 | 86 | 1012.2 |
| 20260510141733 | 52 | 252 | 0.0 | 0.0 | 0.00 | 0.00 | 0.00 | 86 | 1012.3 |
| 20260510141337 | 52 | 252 | 0.0 | 0.0 | 0.00 | 0.00 | 0.00 | 86 | 1012.3 |
| 20260510141134 | 52 | 252 | 0.0 | 0.0 | 0.00 | 0.00 | 0.00 | 86 | 1012.2 |
| 20260510140926 | 52 | 252 | 0.0 | 0.0 | 0.00 | 0.00 | 0.00 | 86 | 1012.2 |
| 20260510140721 | 52 | 252 | 0.0 | 0.0 | 0.00 | 0.00 | 0.00 | 86 | 1012.2 |
| 20260510140513 | 52 | 252 | 0.0 | 0.0 | 0.00 | 0.00 | 0.00 | 86 | 1012.2 |
| 20260510140308 | 52 | 252 | 0.0 | 0.0 | 0.00 | 0.00 | 0.00 | 86 | 1012.1 |
| 20260510140059 | 52 | 252 | 0.0 | 0.0 | 0.00 | 0.00 | 0.00 | 86 | 1012.1 |
| 20260510135855 | 52 | 252 | 0.0 | 0.0 | 0.00 | 0.00 | 0.00 | 86 | 1012.1 |
| 20260510135650 | 52 | 252 | 0.0 | 0.0 | 0.00 | 0.00 | 0.00 | 86 | 1012.1 |
| 20260510135253 | 52 | 252 | 0.0 | 0.0 | 0.00 | 0.00 | 0.00 | 86 | 1012.0 |
| 20260510135046 | 52 | 252 | 0.0 | 0.0 | 0.00 | 0.00 | 0.00 | 86 | 1012.1 |
| 20260510134835 | 52 | 252 | 0.0 | 0.0 | 0.00 | 0.00 | 0.00 | 86 | 1012.0 |
| 20260510134444 | 52 | 252 | 0.0 | 0.0 | 0.00 | 0.00 | 0.00 | 86 | 1012.0 |
| 20260510134239 | 52 | 252 | 0.0 | 0.0 | 0.00 | 0.00 | 0.00 | 85 | 1012.0 |
| 20260510134037 | 52 | 252 | 0.0 | 0.0 | 0.00 | 0.00 | 0.00 | 85 | 1011.9 |
| 20260510133832 | 52 | 252 | 0.0 | 0.0 | 0.00 | 0.00 | 0.00 | 85 | 1011.9 |
| 20260510133620 | 52 | 252 | 0.0 | 0.0 | 0.00 | 0.00 | 0.00 | 85 | 1011.9 |
| 20260510133411 | 52 | 252 | 0.0 | 0.0 | 0.00 | 0.00 | 0.00 | 85 | 1011.9 |
| 20260510133158 | 52 | 252 | 0.0 | 0.0 | 0.00 | 0.00 | 0.00 | 85 | 1011.7 |
| 20260510132950 | 52 | 252 | 0.0 | 0.0 | 0.00 | 0.00 | 0.00 | 85 | 1011.7 |
| 20260510132745 | 52 | 252 | 0.0 | 0.0 | 0.00 | 0.00 | 0.00 | 85 | 1011.6 |
| 20260510132543 | 52 | 252 | 0.0 | 0.0 | 0.00 | 0.00 | 0.00 | 85 | 1011.7 |
| 20260510132339 | 52 | 252 | 0.0 | 0.0 | 0.00 | 0.00 | 0.00 | 85 | 1011.7 |
| 20260510132128 | 52 | 252 | 0.0 | 0.0 | 0.00 | 0.00 | 0.00 | 85 | 1011.6 |
| 20260510131627 | 52 | 252 | 0.0 | 0.0 | 0.00 | 0.00 | 0.00 | 86 | 1011.6 |
| 20260510131419 | 52 | 252 | 0.0 | 0.0 | 0.00 | 0.00 | 0.00 | 85 | 1011.6 |
| 20260510131211 | 52 | 252 | 0.0 | 0.0 | 0.00 | 0.00 | 0.00 | 85 | 1011.6 |
| 20260510131007 | 52 | 252 | 0.0 | 0.0 | 0.00 | 0.00 | 0.00 | 85 | 1011.6 |
| 20260510130614 | 52 | 252 | 0.0 | 0.0 | 0.00 | 0.00 | 0.00 | 85 | 1011.7 |
| 20260510130413 | 52 | 252 | 0.0 | 0.0 | 0.00 | 0.00 | 0.00 | 85 | 1011.7 |
| 20260510130021 | 52 | 252 | 0.0 | 0.0 | 0.00 | 0.00 | 0.00 | 85 | 1011.7 |
| 20260510125819 | 52 | 252 | 0.0 | 0.0 | 0.00 | 0.00 | 0.00 | 85 | 1011.7 |
| 20260510125616 | 52 | 252 | 0.0 | 0.0 | 0.00 | 0.00 | 0.00 | 85 | 1011.7 |
| 20260510125219 | 52 | 252 | 0.0 | 0.0 | 0.00 | 0.00 | 0.00 | 85 | 1011.7 |
| 20260510125006 | 52 | 252 | 0.0 | 0.0 | 0.00 | 0.00 | 0.00 | 85 | 1011.7 |
| 20260510124804 | 52 | 252 | 0.0 | 0.0 | 0.00 | 0.00 | 0.00 | 85 | 1011.6 |
| 20260510124553 | 52 | 252 | 0.0 | 0.0 | 0.00 | 0.00 | 0.00 | 85 | 1011.6 |
| 20260510124346 | 52 | 252 | 0.0 | 0.0 | 0.00 | 0.00 | 0.00 | 85 | 1011.7 |
| 20260510124140 | 52 | 252 | 0.0 | 0.0 | 0.00 | 0.00 | 0.00 | 85 | 1011.6 |
| 20260510123935 | 53 | 252 | 0.0 | 0.0 | 0.00 | 0.00 | 0.00 | 85 | 1011.7 |
| 20260510123728 | 53 | 252 | 0.0 | 0.0 | 0.00 | 0.00 | 0.00 | 85 | 1011.7 |
| 20260510123524 | 53 | 252 | 0.0 | 0.0 | 0.00 | 0.00 | 0.00 | 85 | 1011.7 |
| 20260510123320 | 53 | 252 | 0.0 | 0.0 | 0.00 | 0.00 | 0.00 | 85 | 1011.8 |
| 20260510123118 | 53 | 252 | 0.0 | 0.0 | 0.00 | 0.00 | 0.00 | 85 | 1011.7 |
| 20260510122907 | 53 | 252 | 0.0 | 0.0 | 0.00 | 0.00 | 0.00 | 85 | 1011.8 |
| 20260510122654 | 53 | 252 | 0.0 | 0.0 | 0.00 | 0.00 | 0.00 | 85 | 1011.7 |
| 20260510122301 | 53 | 252 | 0.0 | 0.0 | 0.00 | 0.00 | 0.00 | 85 | 1011.7 |
| 20260510122057 | 53 | 252 | 0.0 | 0.0 | 0.00 | 0.00 | 0.00 | 85 | 1011.7 |
| 20260510121850 | 53 | 252 | 0.0 | 0.0 | 0.00 | 0.00 | 0.00 | 85 | 1011.7 |
| 20260510121645 | 53 | 252 | 0.0 | 0.0 | 0.00 | 0.00 | 0.00 | 85 | 1011.7 |
| 20260510121441 | 53 | 252 | 0.0 | 0.0 | 0.00 | 0.00 | 0.00 | 85 | 1011.7 |
| 20260510121238 | 53 | 252 | 0.0 | 0.0 | 0.00 | 0.00 | 0.00 | 85 | 1011.7 |
| 20260510121032 | 53 | 252 | 0.0 | 0.0 | 0.00 | 0.00 | 0.00 | 85 | 1011.7 |
| 20260510120826 | 53 | 252 | 0.0 | 0.0 | 0.00 | 0.00 | 0.00 | 85 | 1011.7 |
| 20260510120619 | 53 | 252 | 0.0 | 0.0 | 0.00 | 0.00 | 0.00 | 85 | 1011.7 |
| 20260510120414 | 53 | 252 | 0.0 | 0.0 | 0.00 | 0.00 | 0.00 | 85 | 1011.7 |
| 20260510120205 | 53 | 252 | 0.0 | 0.0 | 0.00 | 0.00 | 0.00 | 85 | 1011.7 |
| 20260510115953 | 53 | 252 | 0.0 | 0.0 | 0.00 | 0.00 | 0.00 | 85 | 1011.8 |
| 20260510115740 | 53 | 252 | 0.0 | 0.0 | 0.00 | 0.00 | 0.00 | 85 | 1011.8 |
| 20260510115535 | 53 | 252 | 0.0 | 0.0 | 0.00 | 0.00 | 0.00 | 85 | 1011.8 |
| 20260510115322 | 53 | 252 | 0.0 | 0.0 | 0.00 | 0.00 | 0.00 | 85 | 1011.9 |
| 20260510115117 | 53 | 252 | 0.0 | 0.0 | 0.00 | 0.00 | 0.00 | 85 | 1011.8 |
| 20260510114908 | 53 | 252 | 0.0 | 0.0 | 0.00 | 0.00 | 0.00 | 85 | 1011.9 |
| 20260510114659 | 53 | 252 | 0.0 | 0.0 | 0.00 | 0.00 | 0.00 | 85 | 1011.9 |
| 20260510114448 | 53 | 252 | 0.0 | 0.0 | 0.00 | 0.00 | 0.00 | 85 | 1011.9 |
| 20260510114245 | 53 | 252 | 0.0 | 0.0 | 0.00 | 0.00 | 0.00 | 85 | 1011.8 |
| 20260510114036 | 53 | 252 | 0.0 | 0.0 | 0.00 | 0.00 | 0.00 | 85 | 1011.9 |
| 20260510113826 | 53 | 252 | 0.0 | 0.0 | 0.00 | 0.00 | 0.00 | 84 | 1011.8 |
| 20260510113242 | 53 | 252 | 0.0 | 0.0 | 0.00 | 0.00 | 0.00 | 84 | 1011.9 |
| 20260510113029 | 53 | 252 | 0.0 | 0.0 | 0.00 | 0.00 | 0.00 | 84 | 1011.8 |
| 20260510112818 | 53 | 252 | 0.0 | 0.0 | 0.00 | 0.00 | 0.00 | 84 | 1011.8 |
| 20260510112425 | 53 | 252 | 0.0 | 0.0 | 0.00 | 0.00 | 0.00 | 84 | 1011.9 |
| 20260510112213 | 53 | 252 | 0.0 | 0.0 | 0.00 | 0.00 | 0.00 | 84 | 1011.8 |
| 20260510112001 | 53 | 252 | 0.0 | 0.0 | 0.00 | 0.00 | 0.00 | 84 | 1011.8 |
| 20260510111755 | 53 | 252 | 0.0 | 0.0 | 0.00 | 0.00 | 0.00 | 84 | 1011.9 |
| 20260510111544 | 53 | 252 | 0.0 | 0.0 | 0.00 | 0.00 | 0.00 | 84 | 1011.8 |
| 20260510111331 | 53 | 252 | 0.0 | 0.0 | 0.00 | 0.00 | 0.00 | 84 | 1011.8 |
| 20260510110937 | 53 | 252 | 0.0 | 0.0 | 0.00 | 0.00 | 0.00 | 84 | 1011.7 |
| 20260510110734 | 53 | 252 | 0.0 | 0.0 | 0.00 | 0.00 | 0.00 | 84 | 1011.8 |
| 20260510110528 | 53 | 252 | 0.0 | 0.0 | 0.00 | 0.00 | 0.00 | 84 | 1011.7 |
| 20260510110323 | 53 | 252 | 0.0 | 0.0 | 0.00 | 0.00 | 0.00 | 84 | 1011.7 |
| 20260510110116 | 53 | 252 | 0.0 | 0.0 | 0.00 | 0.00 | 0.00 | 84 | 1011.7 |
| 20260510105909 | 53 | 252 | 0.0 | 0.0 | 0.00 | 0.00 | 0.00 | 84 | 1011.7 |
| 20260510105700 | 53 | 252 | 0.0 | 0.0 | 0.00 | 0.00 | 0.00 | 84 | 1011.7 |
| 20260510105452 | 53 | 252 | 0.0 | 0.0 | 0.00 | 0.00 | 0.00 | 84 | 1011.7 |
| 20260510105239 | 53 | 252 | 0.0 | 0.0 | 0.00 | 0.00 | 0.00 | 84 | 1011.7 |
| 20260510105037 | 53 | 252 | 0.0 | 0.0 | 0.00 | 0.00 | 0.00 | 84 | 1011.8 |
| 20260510104830 | 53 | 252 | 0.0 | 0.0 | 0.00 | 0.00 | 0.00 | 84 | 1011.7 |
| 20260510104618 | 53 | 252 | 0.0 | 0.0 | 0.00 | 0.00 | 0.00 | 84 | 1011.7 |
| 20260510104410 | 53 | 252 | 0.0 | 0.0 | 0.00 | 0.00 | 0.00 | 84 | 1011.7 |
| 20260510104206 | 53 | 252 | 0.0 | 0.0 | 0.00 | 0.00 | 0.00 | 84 | 1011.7 |
| 20260510104001 | 53 | 252 | 0.0 | 0.0 | 0.00 | 0.00 | 0.00 | 84 | 1011.7 |
| 20260510103756 | 53 | 252 | 0.0 | 0.0 | 0.00 | 0.00 | 0.00 | 84 | 1011.7 |
| 20260510103545 | 53 | 252 | 0.0 | 0.0 | 0.00 | 0.00 | 0.00 | 83 | 1011.8 |
| 20260510103340 | 53 | 252 | 0.0 | 0.0 | 0.00 | 0.00 | 0.00 | 83 | 1011.8 |
| 20260510103136 | 53 | 252 | 0.0 | 0.0 | 0.00 | 0.00 | 0.00 | 83 | 1011.8 |
| 20260510102932 | 53 | 252 | 0.0 | 0.0 | 0.00 | 0.00 | 0.00 | 83 | 1011.8 |
| 20260510102538 | 53 | 252 | 0.0 | 0.0 | 0.00 | 0.00 | 0.00 | 83 | 1011.7 |
| 20260510102333 | 53 | 252 | 0.0 | 0.0 | 0.00 | 0.00 | 0.00 | 83 | 1011.7 |
| 20260510102127 | 53 | 252 | 0.0 | 0.0 | 0.00 | 0.00 | 0.00 | 83 | 1011.7 |
| 20260510101915 | 53 | 252 | 0.0 | 0.0 | 0.00 | 0.00 | 0.00 | 83 | 1011.7 |
| 20260510101714 | 53 | 252 | 0.0 | 0.0 | 0.00 | 0.00 | 0.00 | 83 | 1011.7 |
| 20260510101511 | 53 | 252 | 0.0 | 0.0 | 0.00 | 0.00 | 0.00 | 83 | 1011.7 |
| 20260510101309 | 53 | 252 | 0.0 | 0.0 | 0.00 | 0.00 | 0.00 | 83 | 1011.7 |
| 20260510101056 | 53 | 252 | 0.0 | 0.0 | 0.00 | 0.00 | 0.00 | 83 | 1011.7 |
| 20260510100851 | 53 | 252 | 0.0 | 0.0 | 0.00 | 0.00 | 0.00 | 83 | 1011.7 |
| 20260510100458 | 53 | 252 | 0.0 | 0.0 | 0.00 | 0.00 | 0.00 | 83 | 1011.7 |
| 20260510100257 | 53 | 252 | 0.0 | 0.0 | 0.00 | 0.00 | 0.00 | 83 | 1011.7 |
| 20260510095909 | 54 | 252 | 0.0 | 0.0 | 0.00 | 0.00 | 0.00 | 83 | 1011.7 |
| 20260510095656 | 53 | 252 | 0.0 | 0.0 | 0.00 | 0.00 | 0.00 | 83 | 1011.7 |
| 20260510095448 | 54 | 252 | 0.0 | 0.0 | 0.00 | 0.00 | 0.00 | 83 | 1011.7 |
| 20260510095241 | 54 | 252 | 0.0 | 0.0 | 0.00 | 0.00 | 0.00 | 83 | 1011.7 |
| 20260510095028 | 54 | 252 | 0.0 | 0.0 | 0.00 | 0.00 | 0.00 | 83 | 1011.7 |
| 20260510094450 | 54 | 252 | 0.0 | 0.0 | 0.00 | 0.00 | 0.00 | 82 | 1011.7 |
| 20260510094238 | 54 | 252 | 0.0 | 0.0 | 0.00 | 0.00 | 0.00 | 82 | 1011.8 |
| 20260510094028 | 54 | 252 | 0.0 | 0.0 | 0.00 | 0.00 | 0.00 | 82 | 1011.7 |
| 20260510093827 | 54 | 252 | 0.0 | 0.0 | 0.00 | 0.00 | 0.00 | 82 | 1011.7 |
| 20260510093619 | 54 | 252 | 0.0 | 0.0 | 0.00 | 0.00 | 0.00 | 82 | 1011.7 |
| 20260510093406 | 54 | 252 | 0.0 | 0.0 | 0.00 | 0.00 | 0.00 | 82 | 1011.8 |
| 20260510093014 | 54 | 252 | 0.0 | 0.0 | 0.00 | 0.00 | 0.00 | 82 | 1011.7 |
| 20260510092811 | 54 | 252 | 0.0 | 0.0 | 0.00 | 0.00 | 0.00 | 82 | 1011.8 |
| 20260510092604 | 54 | 252 | 0.0 | 0.0 | 0.00 | 0.00 | 0.00 | 82 | 1011.8 |
| 20260510092352 | 54 | 252 | 0.0 | 0.0 | 0.00 | 0.00 | 0.00 | 82 | 1011.8 |
| 20260510092144 | 54 | 252 | 0.0 | 0.0 | 0.00 | 0.00 | 0.00 | 82 | 1011.9 |
| 20260510091748 | 54 | 252 | 0.0 | 0.0 | 0.00 | 0.00 | 0.00 | 82 | 1011.9 |
| 20260510091538 | 54 | 252 | 0.0 | 0.0 | 0.00 | 0.00 | 0.00 | 81 | 1011.9 |
| 20260510091327 | 54 | 252 | 0.0 | 0.0 | 0.00 | 0.00 | 0.00 | 82 | 1011.8 |
| 20260510091115 | 54 | 252 | 0.0 | 0.0 | 0.00 | 0.00 | 0.00 | 82 | 1011.8 |
| 20260510090904 | 54 | 252 | 0.0 | 0.0 | 0.00 | 0.00 | 0.00 | 82 | 1011.7 |
| 20260510090701 | 54 | 252 | 0.0 | 0.0 | 0.00 | 0.00 | 0.00 | 81 | 1011.8 |
| 20260510090459 | 54 | 252 | 0.0 | 0.0 | 0.00 | 0.00 | 0.00 | 81 | 1011.8 |
| 20260510090250 | 54 | 252 | 0.0 | 0.0 | 0.00 | 0.00 | 0.00 | 81 | 1011.7 |
| 20260510090037 | 54 | 252 | 0.0 | 0.0 | 0.00 | 0.00 | 0.00 | 81 | 1011.7 |
| 20260510085827 | 54 | 252 | 0.0 | 0.0 | 0.00 | 0.00 | 0.00 | 81 | 1011.8 |
| 20260510085438 | 54 | 252 | 0.0 | 0.0 | 0.00 | 0.00 | 0.00 | 81 | 1011.9 |
| 20260510085235 | 54 | 252 | 0.0 | 0.0 | 0.00 | 0.00 | 0.00 | 81 | 1011.8 |
| 20260510085027 | 54 | 252 | 0.0 | 0.0 | 0.00 | 0.00 | 0.00 | 81 | 1011.8 |
| 20260510084821 | 54 | 252 | 0.0 | 0.0 | 0.00 | 0.00 | 0.00 | 81 | 1011.8 |
| 20260510084425 | 54 | 252 | 0.0 | 0.0 | 0.00 | 0.00 | 0.00 | 81 | 1011.8 |
| 20260510084037 | 54 | 252 | 0.0 | 0.0 | 0.00 | 0.00 | 0.00 | 81 | 1011.9 |
| 20260510083830 | 54 | 252 | 0.0 | 0.0 | 0.00 | 0.00 | 0.00 | 80 | 1011.9 |
| 20260510083620 | 54 | 252 | 0.0 | 0.0 | 0.00 | 0.00 | 0.00 | 80 | 1011.9 |
| 20260510083414 | 54 | 252 | 0.0 | 0.0 | 0.00 | 0.00 | 0.00 | 80 | 1011.8 |
| 20260510083205 | 54 | 252 | 0.0 | 0.0 | 0.00 | 0.00 | 0.00 | 80 | 1011.8 |
| 20260510083000 | 54 | 252 | 0.0 | 0.0 | 0.00 | 0.00 | 0.00 | 81 | 1011.9 |
| 20260510082606 | 54 | 252 | 0.0 | 0.0 | 0.00 | 0.00 | 0.00 | 80 | 1011.9 |
| 20260510082403 | 54 | 252 | 0.0 | 0.0 | 0.00 | 0.00 | 0.00 | 80 | 1011.9 |
| 20260510082156 | 54 | 252 | 0.0 | 0.0 | 0.00 | 0.00 | 0.00 | 80 | 1011.9 |
| 20260510081808 | 54 | 252 | 0.0 | 0.0 | 0.00 | 0.00 | 0.00 | 80 | 1011.9 |
| 20260510081555 | 54 | 252 | 0.0 | 0.0 | 0.00 | 0.00 | 0.00 | 80 | 1011.9 |
| 20260510081201 | 54 | 252 | 0.0 | 0.0 | 0.00 | 0.00 | 0.00 | 80 | 1011.9 |
| 20260510080948 | 54 | 252 | 0.0 | 0.0 | 0.00 | 0.00 | 0.00 | 80 | 1012.0 |
| 20260510080738 | 55 | 252 | 0.0 | 0.0 | 0.00 | 0.00 | 0.00 | 80 | 1012.0 |
| 20260510080533 | 55 | 252 | 0.0 | 0.0 | 0.00 | 0.00 | 0.00 | 80 | 1011.9 |
| 20260510080325 | 55 | 252 | 0.0 | 0.0 | 0.00 | 0.00 | 0.00 | 80 | 1012.0 |
| 20260510075939 | 55 | 252 | 0.0 | 0.0 | 0.00 | 0.00 | 0.00 | 79 | 1012.0 |
| 20260510075737 | 55 | 252 | 0.0 | 0.0 | 0.00 | 0.00 | 0.00 | 79 | 1012.0 |
| 20260510075530 | 55 | 252 | 0.0 | 0.0 | 0.00 | 0.00 | 0.00 | 79 | 1012.1 |
| 20260510075320 | 55 | 252 | 0.0 | 0.0 | 0.00 | 0.00 | 0.00 | 79 | 1012.1 |
| 20260510074924 | 55 | 252 | 0.0 | 0.0 | 0.00 | 0.00 | 0.00 | 79 | 1012.1 |
| 20260510074711 | 55 | 252 | 0.0 | 0.0 | 0.00 | 0.00 | 0.00 | 79 | 1012.1 |
| 20260510074506 | 55 | 252 | 0.0 | 0.0 | 0.00 | 0.00 | 0.00 | 79 | 1012.1 |
| 20260510074258 | 55 | 252 | 0.0 | 0.0 | 0.00 | 0.00 | 0.00 | 79 | 1012.1 |
| 20260510074053 | 55 | 252 | 0.0 | 0.0 | 0.00 | 0.00 | 0.00 | 79 | 1012.1 |
| 20260510073841 | 55 | 252 | 0.0 | 0.0 | 0.00 | 0.00 | 0.00 | 78 | 1012.1 |
| 20260510073637 | 55 | 252 | 0.0 | 0.0 | 0.00 | 0.00 | 0.00 | 78 | 1012.1 |
| 20260510073427 | 55 | 252 | 0.0 | 0.0 | 0.00 | 0.00 | 0.00 | 78 | 1012.1 |
| 20260510073214 | 55 | 252 | 0.0 | 0.0 | 0.00 | 0.00 | 0.00 | 78 | 1012.1 |
| 20260510072825 | 55 | 252 | 0.0 | 0.0 | 0.00 | 0.00 | 0.00 | 78 | 1012.1 |
| 20260510072613 | 55 | 252 | 0.0 | 0.0 | 0.00 | 0.00 | 0.00 | 78 | 1012.1 |
| 20260510072403 | 55 | 252 | 0.0 | 0.0 | 0.00 | 0.00 | 0.00 | 78 | 1012.1 |
| 20260510072201 | 55 | 252 | 0.0 | 0.0 | 0.00 | 0.00 | 0.00 | 78 | 1012.1 |
| 20260510071951 | 55 | 252 | 0.0 | 0.0 | 0.00 | 0.00 | 0.00 | 78 | 1012.1 |
| 20260510071749 | 55 | 252 | 0.0 | 0.0 | 0.00 | 0.00 | 0.00 | 78 | 1012.1 |
| 20260510071544 | 55 | 252 | 0.0 | 0.0 | 0.00 | 0.00 | 0.00 | 78 | 1012.1 |
| 20260510071339 | 55 | 252 | 0.0 | 0.0 | 0.00 | 0.00 | 0.00 | 78 | 1012.1 |
| 20260510071129 | 56 | 252 | 0.0 | 0.0 | 0.00 | 0.00 | 0.00 | 78 | 1012.1 |
| 20260510070924 | 56 | 252 | 0.0 | 0.0 | 0.00 | 0.00 | 0.00 | 78 | 1012.1 |
| 20260510070716 | 56 | 252 | 0.0 | 0.0 | 0.00 | 0.00 | 0.00 | 78 | 1012.2 |
| 20260510070322 | 56 | 252 | 0.0 | 0.0 | 0.00 | 0.00 | 0.00 | 78 | 1012.1 |
| 20260510065557 | 56 | 252 | 0.0 | 0.0 | 0.00 | 0.00 | 0.00 | 78 | 1012.1 |
| 20260510065204 | 56 | 252 | 0.0 | 0.0 | 0.00 | 0.00 | 0.00 | 78 | 1012.1 |
| 20260510065002 | 56 | 252 | 0.0 | 0.0 | 0.00 | 0.00 | 0.00 | 78 | 1012.1 |
| 20260510064756 | 56 | 252 | 0.0 | 0.0 | 0.00 | 0.00 | 0.00 | 78 | 1012.2 |
| 20260510064548 | 56 | 252 | 0.0 | 0.0 | 0.00 | 0.00 | 0.00 | 77 | 1012.1 |
| 20260510064345 | 56 | 252 | 0.0 | 0.0 | 0.00 | 0.00 | 0.00 | 77 | 1012.2 |
| 20260510064140 | 56 | 252 | 0.0 | 0.0 | 0.00 | 0.00 | 0.00 | 77 | 1012.1 |
| 20260510063931 | 56 | 252 | 0.0 | 0.0 | 0.00 | 0.00 | 0.00 | 77 | 1012.1 |
| 20260510063719 | 56 | 252 | 0.0 | 0.0 | 0.00 | 0.00 | 0.00 | 77 | 1012.1 |
| 20260510063517 | 57 | 252 | 0.0 | 0.0 | 0.00 | 0.00 | 0.00 | 77 | 1012.1 |
| 20260510063307 | 57 | 252 | 0.0 | 0.0 | 0.00 | 0.00 | 0.00 | 77 | 1012.0 |
| 20260510063057 | 57 | 252 | 0.0 | 0.0 | 0.00 | 0.00 | 0.00 | 77 | 1012.0 |
| 20260510062848 | 57 | 252 | 0.0 | 0.0 | 0.00 | 0.00 | 0.00 | 77 | 1012.0 |
| 20260510062644 | 57 | 252 | 0.0 | 0.0 | 0.00 | 0.00 | 0.00 | 77 | 1012.0 |
| 20260510062442 | 57 | 252 | 0.0 | 0.0 | 0.00 | 0.00 | 0.00 | 77 | 1012.0 |
| 20260510062235 | 57 | 252 | 0.0 | 0.0 | 0.00 | 0.00 | 0.00 | 77 | 1012.0 |
| 20260510062025 | 57 | 252 | 0.0 | 0.0 | 0.00 | 0.00 | 0.00 | 77 | 1012.1 |
| 20260510061635 | 57 | 252 | 0.0 | 0.0 | 0.00 | 0.00 | 0.00 | 77 | 1012.1 |
| 20260510061431 | 57 | 252 | 0.0 | 0.0 | 0.00 | 0.00 | 0.00 | 77 | 1012.1 |
| 20260510061219 | 57 | 252 | 0.0 | 0.0 | 0.00 | 0.00 | 0.00 | 77 | 1012.1 |
| 20260510060824 | 57 | 252 | 0.0 | 0.0 | 0.00 | 0.00 | 0.00 | 77 | 1012.1 |
| 20260510060616 | 57 | 252 | 0.0 | 0.0 | 0.00 | 0.00 | 0.00 | 76 | 1012.1 |
| 20260510060410 | 58 | 252 | 0.0 | 0.0 | 0.00 | 0.00 | 0.00 | 76 | 1012.1 |
| 20260510060158 | 58 | 252 | 0.0 | 0.0 | 0.00 | 0.00 | 0.00 | 76 | 1012.1 |
| 20260510055947 | 58 | 252 | 0.0 | 0.0 | 0.00 | 0.00 | 0.00 | 76 | 1012.1 |
| 20260510055741 | 58 | 252 | 0.0 | 0.0 | 0.00 | 0.00 | 0.00 | 76 | 1012.1 |
| 20260510055537 | 58 | 252 | 0.0 | 0.0 | 0.00 | 0.00 | 0.00 | 76 | 1012.2 |
| 20260510055336 | 58 | 252 | 0.0 | 0.0 | 0.00 | 0.00 | 0.00 | 76 | 1012.1 |
| 20260510055128 | 58 | 252 | 0.0 | 0.0 | 0.00 | 0.00 | 0.00 | 76 | 1012.1 |
| 20260510054925 | 58 | 252 | 0.0 | 0.0 | 0.00 | 0.00 | 0.00 | 76 | 1012.1 |
| 20260510054530 | 58 | 252 | 0.0 | 0.0 | 0.00 | 0.00 | 0.00 | 76 | 1012.1 |
| 20260510054319 | 58 | 252 | 0.0 | 0.0 | 0.00 | 0.00 | 0.00 | 76 | 1012.2 |
| 20260510053931 | 58 | 252 | 0.0 | 0.0 | 0.00 | 0.00 | 0.00 | 76 | 1012.1 |
| 20260510053725 | 59 | 252 | 0.0 | 0.0 | 0.00 | 0.00 | 0.00 | 76 | 1012.1 |
| 20260510053522 | 59 | 252 | 0.0 | 0.0 | 0.00 | 0.00 | 0.00 | 76 | 1012.1 |
| 20260510053317 | 59 | 252 | 0.0 | 0.0 | 0.00 | 0.00 | 0.00 | 75 | 1012.1 |
| 20260510053107 | 59 | 252 | 0.0 | 0.0 | 0.00 | 0.00 | 0.00 | 75 | 1012.0 |
| 20260510052531 | 59 | 252 | 0.0 | 0.0 | 0.00 | 0.00 | 0.00 | 75 | 1012.0 |
| 20260510052328 | 59 | 252 | 0.0 | 0.0 | 0.00 | 0.00 | 0.00 | 75 | 1012.0 |
| 20260510052120 | 59 | 252 | 0.0 | 0.0 | 0.00 | 0.00 | 0.00 | 75 | 1012.1 |
| 20260510051911 | 59 | 252 | 0.0 | 0.0 | 0.00 | 0.00 | 0.00 | 75 | 1012.0 |
| 20260510051708 | 60 | 252 | 0.0 | 0.0 | 0.00 | 0.00 | 0.00 | 75 | 1012.0 |
| 20260510051456 | 60 | 252 | 0.0 | 0.0 | 0.00 | 0.00 | 0.00 | 75 | 1012.0 |
| 20260510051248 | 60 | 252 | 0.0 | 0.0 | 0.00 | 0.00 | 0.00 | 75 | 1012.0 |
| 20260510051040 | 60 | 252 | 0.0 | 0.0 | 0.00 | 0.00 | 0.00 | 75 | 1012.0 |
| 20260510050837 | 60 | 252 | 0.0 | 0.0 | 0.00 | 0.00 | 0.00 | 75 | 1012.0 |
| 20260510050633 | 60 | 252 | 0.0 | 0.0 | 0.00 | 0.00 | 0.00 | 74 | 1011.9 |
| 20260510050426 | 60 | 252 | 0.0 | 0.0 | 0.00 | 0.00 | 0.00 | 74 | 1011.9 |
| 20260510050213 | 60 | 252 | 0.0 | 0.0 | 0.00 | 0.00 | 0.00 | 74 | 1011.9 |
| 20260510050008 | 60 | 252 | 0.0 | 0.0 | 0.00 | 0.00 | 0.00 | 74 | 1011.9 |
| 20260510045757 | 60 | 252 | 0.0 | 0.0 | 0.00 | 0.00 | 0.00 | 74 | 1012.0 |
| 20260510045551 | 61 | 252 | 0.0 | 0.0 | 0.00 | 0.00 | 0.00 | 74 | 1011.9 |
| 20260510045350 | 61 | 252 | 0.0 | 0.0 | 0.00 | 0.00 | 0.00 | 74 | 1011.9 |
| 20260510044957 | 61 | 252 | 0.0 | 0.0 | 0.00 | 0.00 | 0.00 | 73 | 1011.8 |
| 20260510044745 | 61 | 252 | 0.0 | 0.0 | 0.00 | 0.00 | 0.00 | 73 | 1011.8 |
| 20260510044534 | 61 | 252 | 0.0 | 0.0 | 0.00 | 0.00 | 0.00 | 73 | 1011.8 |
| 20260510044322 | 61 | 252 | 0.0 | 0.0 | 0.00 | 0.00 | 0.00 | 73 | 1011.7 |
| 20260510044115 | 61 | 252 | 0.0 | 0.0 | 0.00 | 0.00 | 0.00 | 73 | 1011.7 |
| 20260510043903 | 62 | 252 | 0.0 | 0.0 | 0.00 | 0.00 | 0.00 | 73 | 1011.7 |
| 20260510043651 | 62 | 252 | 0.0 | 0.0 | 0.00 | 0.00 | 0.00 | 72 | 1011.6 |
| 20260510043438 | 62 | 252 | 0.0 | 0.0 | 0.00 | 0.00 | 0.00 | 72 | 1011.6 |
| 20260510043231 | 62 | 252 | 0.0 | 0.0 | 0.00 | 0.00 | 0.00 | 72 | 1011.6 |
| 20260510043018 | 62 | 252 | 0.0 | 0.0 | 0.00 | 0.00 | 0.00 | 72 | 1011.6 |
| 20260510042811 | 62 | 252 | 0.0 | 0.0 | 0.00 | 0.00 | 0.00 | 72 | 1011.6 |
| 20260510042601 | 62 | 252 | 0.0 | 0.0 | 0.00 | 0.00 | 0.00 | 71 | 1011.6 |
| 20260510042349 | 62 | 252 | 0.0 | 0.0 | 0.00 | 0.00 | 0.00 | 71 | 1011.6 |
| 20260510041959 | 63 | 252 | 0.0 | 0.0 | 0.00 | 0.00 | 0.00 | 70 | 1011.6 |
| 20260510041757 | 63 | 252 | 0.0 | 0.0 | 0.00 | 0.00 | 0.00 | 70 | 1011.6 |
| 20260510041546 | 63 | 252 | 0.0 | 0.0 | 0.00 | 0.00 | 0.00 | 70 | 1011.6 |
| 20260510041342 | 63 | 252 | 0.0 | 0.0 | 0.00 | 0.00 | 0.00 | 70 | 1011.5 |
| 20260510041133 | 63 | 252 | 0.0 | 0.0 | 0.00 | 0.00 | 0.00 | 70 | 1011.5 |
| 20260510040929 | 64 | 252 | 0.0 | 0.0 | 0.00 | 0.00 | 0.00 | 69 | 1011.5 |
| 20260510040726 | 64 | 252 | 0.0 | 0.0 | 0.00 | 0.00 | 0.00 | 69 | 1011.5 |
| 20260510040521 | 64 | 252 | 0.0 | 0.0 | 0.00 | 0.00 | 0.00 | 69 | 1011.4 |
| 20260510040312 | 64 | 252 | 0.0 | 0.0 | 0.00 | 0.00 | 0.00 | 69 | 1011.3 |
| 20260510040107 | 64 | 252 | 0.0 | 0.0 | 0.00 | 0.00 | 0.00 | 69 | 1011.3 |
| 20260510035719 | 64 | 252 | 0.0 | 0.0 | 0.00 | 0.00 | 0.00 | 68 | 1011.3 |
| 20260510035507 | 65 | 252 | 0.0 | 0.0 | 0.00 | 0.00 | 0.00 | 68 | 1011.2 |
| 20260510035115 | 65 | 252 | 0.0 | 0.0 | 0.00 | 0.00 | 0.00 | 67 | 1011.2 |
| 20260510034908 | 65 | 252 | 0.0 | 0.0 | 0.00 | 0.00 | 0.00 | 67 | 1011.2 |
| 20260510034702 | 65 | 252 | 0.0 | 0.0 | 0.00 | 0.00 | 0.00 | 67 | 1011.2 |
| 20260510034450 | 65 | 252 | 0.0 | 0.0 | 0.00 | 0.00 | 0.00 | 67 | 1011.1 |
| 20260510034100 | 66 | 252 | 0.0 | 0.0 | 0.00 | 0.00 | 0.00 | 67 | 1011.0 |
| 20260510033710 | 66 | 252 | 0.0 | 0.0 | 0.00 | 0.00 | 0.00 | 66 | 1011.0 |
| 20260510033504 | 66 | 252 | 0.0 | 0.0 | 0.00 | 0.00 | 0.00 | 66 | 1011.0 |
| 20260510033258 | 66 | 252 | 0.0 | 0.0 | 0.00 | 0.00 | 0.00 | 66 | 1011.0 |
| 20260510033049 | 67 | 252 | 0.0 | 0.0 | 0.00 | 0.00 | 0.00 | 66 | 1011.0 |
| 20260510032654 | 67 | 252 | 0.0 | 0.0 | 0.00 | 0.00 | 0.00 | 66 | 1010.9 |
| 20260510032449 | 67 | 252 | 0.0 | 0.0 | 0.00 | 0.00 | 0.00 | 65 | 1010.9 |
| 20260510032237 | 67 | 252 | 0.0 | 0.0 | 0.00 | 0.00 | 0.00 | 65 | 1010.9 |
| 20260510032030 | 67 | 252 | 0.0 | 0.0 | 0.00 | 0.00 | 0.00 | 65 | 1010.9 |
| 20260510031825 | 68 | 252 | 0.0 | 0.0 | 0.00 | 0.00 | 0.00 | 65 | 1010.9 |
| 20260510031439 | 68 | 252 | 0.0 | 0.0 | 0.00 | 0.00 | 0.00 | 65 | 1010.7 |
| 20260510031232 | 68 | 252 | 0.0 | 0.0 | 0.00 | 0.00 | 0.00 | 64 | 1010.7 |
| 20260510031024 | 68 | 252 | 0.0 | 0.0 | 0.00 | 0.00 | 0.00 | 64 | 1010.7 |
| 20260510030819 | 69 | 252 | 0.0 | 0.0 | 0.00 | 0.00 | 0.00 | 64 | 1010.7 |
| 20260510030614 | 69 | 252 | 0.0 | 0.0 | 0.00 | 0.00 | 0.00 | 63 | 1010.7 |
| 20260510030411 | 69 | 252 | 0.0 | 0.0 | 0.00 | 0.00 | 0.00 | 63 | 1010.7 |
| 20260510025836 | 69 | 252 | 0.0 | 0.0 | 0.00 | 0.00 | 0.00 | 63 | 1010.7 |
| 20260510025445 | 70 | 252 | 0.0 | 0.0 | 0.00 | 0.00 | 0.00 | 63 | 1010.6 |
| 20260510025241 | 70 | 252 | 0.0 | 0.0 | 0.00 | 0.00 | 0.00 | 63 | 1010.6 |
| 20260510025030 | 70 | 252 | 0.0 | 0.0 | 0.00 | 0.00 | 0.00 | 62 | 1010.6 |
| 20260510024825 | 70 | 252 | 0.0 | 0.0 | 0.00 | 0.00 | 0.00 | 62 | 1010.6 |
| 20260510024616 | 70 | 252 | 0.0 | 0.0 | 0.00 | 0.00 | 0.00 | 62 | 1010.6 |
| 20260510024406 | 71 | 252 | 0.0 | 0.0 | 0.00 | 0.00 | 0.00 | 62 | 1010.6 |
| 20260510024011 | 71 | 252 | 0.0 | 0.0 | 0.00 | 0.00 | 0.00 | 61 | 1010.6 |
| 20260510023759 | 71 | 252 | 0.0 | 0.0 | 0.00 | 0.00 | 0.00 | 61 | 1010.6 |
| 20260510023402 | 71 | 252 | 0.0 | 0.0 | 0.00 | 0.00 | 0.00 | 60 | 1010.6 |
| 20260510023154 | 72 | 252 | 0.0 | 0.0 | 0.00 | 0.00 | 0.00 | 60 | 1010.5 |
| 20260510022944 | 72 | 252 | 0.0 | 0.0 | 0.00 | 0.00 | 0.00 | 60 | 1010.6 |
| 20260510022735 | 72 | 252 | 0.0 | 0.0 | 0.00 | 0.00 | 0.00 | 59 | 1010.5 |
| 20260510022525 | 72 | 252 | 0.0 | 0.0 | 0.00 | 0.00 | 0.00 | 59 | 1010.5 |
| 20260510022131 | 73 | 252 | 0.0 | 0.0 | 0.00 | 0.00 | 0.00 | 59 | 1010.6 |
| 20260510021738 | 73 | 252 | 0.0 | 0.0 | 0.00 | 0.00 | 0.00 | 58 | 1010.5 |
| 20260510021531 | 73 | 252 | 0.0 | 0.0 | 0.00 | 0.00 | 0.00 | 58 | 1010.6 |
| 20260510021325 | 74 | 252 | 0.0 | 0.0 | 0.00 | 0.00 | 0.00 | 57 | 1010.5 |
| 20260510021119 | 74 | 252 | 0.0 | 0.0 | 0.00 | 0.00 | 0.00 | 57 | 1010.5 |
| 20260510020909 | 74 | 252 | 0.0 | 0.0 | 0.00 | 0.00 | 0.00 | 57 | 1010.5 |
| 20260510020659 | 75 | 252 | 0.0 | 0.0 | 0.00 | 0.00 | 0.00 | 56 | 1010.5 |
| 20260510020302 | 75 | 252 | 0.0 | 0.0 | 0.00 | 0.00 | 0.00 | 55 | 1010.5 |
| 20260510020058 | 75 | 252 | 0.0 | 0.0 | 0.00 | 0.00 | 0.00 | 55 | 1010.5 |
| 20260510015851 | 76 | 252 | 0.0 | 0.0 | 0.00 | 0.00 | 0.00 | 55 | 1010.5 |
| 20260510015645 | 76 | 252 | 0.0 | 0.0 | 0.00 | 0.00 | 0.00 | 53 | 1010.5 |
| 20260510015437 | 76 | 252 | 0.0 | 0.0 | 0.00 | 0.00 | 0.00 | 53 | 1010.5 |
| 20260510014855 | 77 | 252 | 0.0 | 0.0 | 0.00 | 0.00 | 0.00 | 51 | 1010.5 |
| 20260510014650 | 77 | 252 | 0.0 | 2.0 | 0.00 | 0.00 | 0.00 | 49 | 1010.5 |
| 20260510014302 | 77 | 251 | 0.0 | 2.0 | 0.00 | 0.00 | 0.00 | 52 | 1010.5 |
| 20260510013914 | 78 | 251 | 0.0 | 0.0 | 0.00 | 0.00 | 0.00 | 51 | 1010.4 |
| 20260510013706 | 78 | 251 | 0.0 | 0.0 | 0.00 | 0.00 | 0.00 | 51 | 1010.5 |
| 20260510013502 | 78 | 251 | 0.0 | 0.0 | 0.00 | 0.00 | 0.00 | 49 | 1010.5 |
| 20260510013250 | 78 | 251 | 0.0 | 1.0 | 0.00 | 0.00 | 0.00 | 48 | 1010.4 |
| 20260510013041 | 78 | 251 | 0.0 | 0.0 | 0.00 | 0.00 | 0.00 | 48 | 1010.5 |
| 20260510012838 | 78 | 251 | 0.0 | 0.0 | 0.00 | 0.00 | 0.00 | 47 | 1010.5 |
| 20260510012628 | 78 | 251 | 0.0 | 2.0 | 0.00 | 0.00 | 0.00 | 47 | 1010.5 |
| 20260510012423 | 78 | 251 | 0.0 | 0.0 | 0.00 | 0.00 | 0.00 | 46 | 1010.5 |
| 20260510012212 | 79 | 251 | 0.0 | 2.0 | 0.00 | 0.00 | 0.00 | 46 | 1010.4 |
| 20260510012001 | 79 | 251 | 0.0 | 0.0 | 0.00 | 0.00 | 0.00 | 48 | 1010.4 |
| 20260510011758 | 79 | 251 | 0.0 | 3.0 | 0.00 | 0.00 | 0.00 | 46 | 1010.5 |
| 20260510011555 | 79 | 251 | 0.0 | 2.0 | 0.00 | 0.00 | 0.00 | 45 | 1010.5 |
| 20260510011345 | 79 | 251 | 0.0 | 5.0 | 0.00 | 0.00 | 0.00 | 45 | 1010.5 |
| 20260510011134 | 79 | 284 | 0.0 | 4.0 | 0.00 | 0.00 | 0.00 | 46 | 1010.5 |
| 20260510010928 | 79 | 281 | 0.0 | 0.0 | 0.00 | 0.00 | 0.00 | 46 | 1010.5 |
| 20260510010717 | 79 | 281 | 0.0 | 4.0 | 0.00 | 0.00 | 0.00 | 45 | 1010.5 |
| 20260510010506 | 79 | 281 | 0.0 | 4.0 | 0.00 | 0.00 | 0.00 | 45 | 1010.5 |
| 20260510010258 | 79 | 281 | 0.0 | 4.0 | 0.00 | 0.00 | 0.00 | 45 | 1010.5 |
| 20260510005718 | 79 | 280 | 0.0 | 3.0 | 0.00 | 0.00 | 0.00 | 44 | 1010.6 |
| 20260510005513 | 79 | 280 | 0.0 | 5.0 | 0.00 | 0.00 | 0.00 | 45 | 1010.6 |
| 20260510005309 | 79 | 281 | 0.0 | 5.0 | 0.00 | 0.00 | 0.00 | 44 | 1010.6 |
| 20260510005102 | 79 | 185 | 0.0 | 3.0 | 0.00 | 0.00 | 0.00 | 44 | 1010.5 |
| 20260510004850 | 79 | 185 | 0.0 | 3.0 | 0.00 | 0.00 | 0.00 | 44 | 1010.6 |
| 20260510004500 | 79 | 171 | 0.0 | 3.0 | 0.00 | 0.00 | 0.00 | 44 | 1010.5 |
| 20260510004112 | 79 | 150 | 0.0 | 3.0 | 0.00 | 0.00 | 0.00 | 45 | 1010.6 |
| 20260510003904 | 80 | 269 | 0.0 | 4.0 | 0.00 | 0.00 | 0.00 | 44 | 1010.6 |
| 20260510003657 | 80 | 269 | 0.0 | 4.0 | 0.00 | 0.00 | 0.00 | 44 | 1010.7 |
| 20260510003445 | 80 | 290 | 0.0 | 4.0 | 0.00 | 0.00 | 0.00 | 45 | 1010.7 |
| 20260510003243 | 80 | 245 | 0.0 | 0.0 | 0.00 | 0.00 | 0.00 | 44 | 1010.6 |
| 20260510003032 | 80 | 245 | 0.0 | 4.0 | 0.00 | 0.00 | 0.00 | 43 | 1010.6 |
| 20260510002822 | 80 | 244 | 0.0 | 3.0 | 0.00 | 0.00 | 0.00 | 43 | 1010.5 |
| 20260510002620 | 80 | 244 | 0.0 | 1.0 | 0.00 | 0.00 | 0.00 | 46 | 1010.5 |
| 20260510002408 | 80 | 244 | 0.0 | 3.0 | 0.00 | 0.00 | 0.00 | 44 | 1010.5 |
| 20260510002200 | 80 | 244 | 0.0 | 3.0 | 0.00 | 0.00 | 0.00 | 44 | 1010.5 |
| 20260510001958 | 80 | 244 | 0.0 | 3.0 | 0.00 | 0.00 | 0.00 | 44 | 1010.5 |
| 20260510001748 | 80 | 244 | 0.0 | 3.0 | 0.00 | 0.00 | 0.00 | 46 | 1010.5 |
| 20260510001544 | 80 | 240 | 0.0 | 3.0 | 0.00 | 0.00 | 0.00 | 44 | 1010.5 |
| 20260510001334 | 80 | 240 | 0.0 | 3.0 | 0.00 | 0.00 | 0.00 | 44 | 1010.5 |
| 20260510001126 | 80 | 240 | 0.0 | 3.0 | 0.00 | 0.00 | 0.00 | 44 | 1010.5 |
| 20260510000922 | 80 | 240 | 1.0 | 6.0 | 0.00 | 0.00 | 0.00 | 45 | 1010.6 |
| 20260510000712 | 80 | 240 | 1.0 | 6.0 | 0.00 | 0.00 | 0.00 | 45 | 1010.6 |
| 20260510000458 | 80 | 251 | 1.0 | 6.0 | 0.00 | 0.00 | 0.00 | 44 | 1010.6 |
| 20260510000249 | 80 | 289 | 1.0 | 6.0 | 0.00 | 0.00 | 0.00 | 44 | 1010.6 |
| 20260509235854 | 80 | 200 | 0.0 | 5.0 | 0.00 | 0.00 | 0.00 | 44 | 1010.5 |
| 20260509235644 | 80 | 335 | 1.0 | 5.0 | 0.00 | 0.00 | 0.00 | 45 | 1010.5 |
| 20260509235431 | 80 | 339 | 1.0 | 6.0 | 0.00 | 0.00 | 0.00 | 45 | 1010.6 |
| 20260509235033 | 80 | 282 | 1.0 | 6.0 | 0.00 | 0.00 | 0.00 | 45 | 1010.7 |
| 20260509234824 | 80 | 282 | 0.0 | 6.0 | 0.00 | 0.00 | 0.00 | 45 | 1010.7 |
| 20260509234620 | 80 | 302 | 0.0 | 6.0 | 0.00 | 0.00 | 0.00 | 47 | 1010.7 |
| 20260509234413 | 80 | 266 | 1.0 | 6.0 | 0.00 | 0.00 | 0.00 | 45 | 1010.6 |
| 20260509234209 | 79 | 247 | 1.0 | 6.0 | 0.00 | 0.00 | 0.00 | 47 | 1010.6 |
| 20260509234001 | 79 | 200 | 1.0 | 6.0 | 0.00 | 0.00 | 0.00 | 48 | 1010.6 |
| 20260509233756 | 79 | 200 | 1.0 | 6.0 | 0.00 | 0.00 | 0.00 | 46 | 1010.6 |
| 20260509233407 | 79 | 198 | 1.0 | 5.0 | 0.00 | 0.00 | 0.00 | 47 | 1010.6 |
| 20260509233154 | 79 | 199 | 1.0 | 5.0 | 0.00 | 0.00 | 0.00 | 46 | 1010.6 |
| 20260509232942 | 80 | 208 | 1.0 | 5.0 | 0.00 | 0.00 | 0.00 | 46 | 1010.6 |
| 20260509232738 | 80 | 225 | 1.0 | 4.0 | 0.00 | 0.00 | 0.00 | 46 | 1010.6 |
| 20260509232532 | 80 | 185 | 1.0 | 4.0 | 0.00 | 0.00 | 0.00 | 45 | 1010.6 |
| 20260509232328 | 80 | 202 | 1.0 | 4.0 | 0.00 | 0.00 | 0.00 | 46 | 1010.6 |
| 20260509232118 | 80 | 249 | 1.0 | 4.0 | 0.00 | 0.00 | 0.00 | 46 | 1010.6 |
| 20260509231912 | 80 | 249 | 1.0 | 4.0 | 0.00 | 0.00 | 0.00 | 45 | 1010.7 |
| 20260509231700 | 80 | 277 | 0.0 | 4.0 | 0.00 | 0.00 | 0.00 | 46 | 1010.7 |
| 20260509231458 | 80 | 286 | 0.0 | 4.0 | 0.00 | 0.00 | 0.00 | 45 | 1010.7 |
| 20260509231255 | 81 | 286 | 0.0 | 4.0 | 0.00 | 0.00 | 0.00 | 45 | 1010.7 |
| 20260509231053 | 81 | 250 | 0.0 | 5.0 | 0.00 | 0.00 | 0.00 | 46 | 1010.7 |
| 20260509230849 | 80 | 199 | 0.0 | 5.0 | 0.00 | 0.00 | 0.00 | 47 | 1010.7 |
| 20260509230646 | 80 | 199 | 0.0 | 5.0 | 0.00 | 0.00 | 0.00 | 47 | 1010.7 |
| 20260509230255 | 79 | 196 | 1.0 | 5.0 | 0.00 | 0.00 | 0.00 | 46 | 1010.7 |
| 20260509225906 | 80 | 165 | 1.0 | 5.0 | 0.00 | 0.00 | 0.00 | 45 | 1010.8 |
| 20260509225653 | 80 | 186 | 1.0 | 5.0 | 0.00 | 0.00 | 0.00 | 47 | 1010.7 |
| 20260509225446 | 80 | 316 | 1.0 | 5.0 | 0.00 | 0.00 | 0.00 | 47 | 1010.8 |
| 20260509225055 | 80 | 190 | 0.0 | 4.0 | 0.00 | 0.00 | 0.00 | 47 | 1010.8 |
| 20260509224701 | 80 | 271 | 0.0 | 6.0 | 0.00 | 0.00 | 0.00 | 46 | 1010.9 |
| 20260509224456 | 81 | 273 | 1.0 | 6.0 | 0.00 | 0.00 | 0.00 | 46 | 1010.9 |
| 20260509224102 | 80 | 271 | 1.0 | 6.0 | 0.00 | 0.00 | 0.00 | 46 | 1010.9 |
| 20260509223901 | 80 | 293 | 1.0 | 6.0 | 0.00 | 0.00 | 0.00 | 46 | 1010.9 |
| 20260509223513 | 81 | 200 | 0.0 | 4.0 | 0.00 | 0.00 | 0.00 | 46 | 1011.0 |
| 20260509223306 | 81 | 178 | 1.0 | 4.0 | 0.00 | 0.00 | 0.00 | 46 | 1011.0 |
| 20260509223102 | 81 | 173 | 1.0 | 5.0 | 0.00 | 0.00 | 0.00 | 46 | 1011.2 |
| 20260509222857 | 81 | 265 | 1.0 | 5.0 | 0.00 | 0.00 | 0.00 | 45 | 1011.1 |
| 20260509222646 | 81 | 216 | 1.0 | 5.0 | 0.00 | 0.00 | 0.00 | 47 | 1011.2 |
| 20260509222435 | 80 | 209 | 0.0 | 5.0 | 0.00 | 0.00 | 0.00 | 48 | 1011.2 |
| 20260509222039 | 80 | 243 | 0.0 | 8.0 | 0.00 | 0.00 | 0.00 | 46 | 1011.2 |
| 20260509221827 | 80 | 242 | 1.0 | 8.0 | 0.00 | 0.00 | 0.00 | 49 | 1011.2 |
| 20260509221248 | 80 | 155 | 1.0 | 8.0 | 0.00 | 0.00 | 0.00 | 46 | 1011.3 |
| 20260509221037 | 80 | 294 | 1.0 | 10.0 | 0.00 | 0.00 | 0.00 | 45 | 1011.4 |
| 20260509220829 | 80 | 201 | 1.0 | 10.0 | 0.00 | 0.00 | 0.00 | 48 | 1011.3 |
| 20260509220434 | 80 | 193 | 1.0 | 10.0 | 0.00 | 0.00 | 0.00 | 48 | 1011.3 |
| 20260509220232 | 80 | 236 | 2.0 | 10.0 | 0.00 | 0.00 | 0.00 | 47 | 1011.3 |
| 20260509220023 | 79 | 205 | 2.0 | 10.0 | 0.00 | 0.00 | 0.00 | 47 | 1011.3 |
| 20260509215820 | 79 | 178 | 2.0 | 10.0 | 0.00 | 0.00 | 0.00 | 46 | 1011.3 |
| 20260509215608 | 80 | 198 | 2.0 | 10.0 | 0.00 | 0.00 | 0.00 | 45 | 1011.3 |
| 20260509215358 | 80 | 163 | 1.0 | 10.0 | 0.00 | 0.00 | 0.00 | 45 | 1011.3 |
| 20260509215155 | 80 | 205 | 1.0 | 7.0 | 0.00 | 0.00 | 0.00 | 47 | 1011.3 |
| 20260509214803 | 81 | 210 | 1.0 | 7.0 | 0.00 | 0.00 | 0.00 | 45 | 1011.4 |
| 20260509214557 | 80 | 197 | 1.0 | 7.0 | 0.00 | 0.00 | 0.00 | 46 | 1011.4 |
| 20260509214347 | 80 | 197 | 1.0 | 7.0 | 0.00 | 0.00 | 0.00 | 46 | 1011.4 |
| 20260509213952 | 80 | 217 | 2.0 | 7.0 | 0.00 | 0.00 | 0.00 | 47 | 1011.5 |
| 20260509213747 | 80 | 188 | 1.0 | 6.0 | 0.00 | 0.00 | 0.00 | 46 | 1011.5 |
| 20260509213539 | 80 | 192 | 2.0 | 6.0 | 0.00 | 0.00 | 0.00 | 46 | 1011.6 |
| 20260509213336 | 80 | 215 | 2.0 | 6.0 | 0.00 | 0.00 | 0.00 | 47 | 1011.6 |
| 20260509213132 | 80 | 226 | 1.0 | 6.0 | 0.00 | 0.00 | 0.00 | 46 | 1011.6 |
| 20260509212928 | 80 | 235 | 1.0 | 5.0 | 0.00 | 0.00 | 0.00 | 47 | 1011.6 |
| 20260509212716 | 80 | 328 | 1.0 | 5.0 | 0.00 | 0.00 | 0.00 | 44 | 1011.5 |
| 20260509212506 | 80 | 259 | 1.0 | 5.0 | 0.00 | 0.00 | 0.00 | 47 | 1011.7 |
| 20260509212259 | 80 | 271 | 1.0 | 5.0 | 0.00 | 0.00 | 0.00 | 47 | 1011.7 |
| 20260509212051 | 80 | 271 | 1.0 | 5.0 | 0.00 | 0.00 | 0.00 | 46 | 1011.7 |
| 20260509211847 | 80 | 271 | 1.0 | 5.0 | 0.00 | 0.00 | 0.00 | 46 | 1011.7 |
| 20260509211640 | 80 | 271 | 1.0 | 5.0 | 0.00 | 0.00 | 0.00 | 46 | 1011.7 |
| 20260509211428 | 79 | 221 | 0.0 | 5.0 | 0.00 | 0.00 | 0.00 | 46 | 1011.8 |
| 20260509211222 | 79 | 199 | 0.0 | 5.0 | 0.00 | 0.00 | 0.00 | 48 | 1011.7 |
| 20260509211021 | 79 | 196 | 0.0 | 5.0 | 0.00 | 0.00 | 0.00 | 48 | 1011.7 |
| 20260509210808 | 80 | 188 | 0.0 | 5.0 | 0.00 | 0.00 | 0.00 | 46 | 1011.7 |
| 20260509210558 | 79 | 217 | 0.0 | 5.0 | 0.00 | 0.00 | 0.00 | 48 | 1011.8 |
| 20260509210345 | 79 | 271 | 1.0 | 1.0 | 0.00 | 0.00 | 0.00 | 50 | 1011.8 |
| 20260509210142 | 78 | 289 | 1.0 | 6.0 | 0.00 | 0.00 | 0.00 | 48 | 1011.8 |
| 20260509205748 | 78 | 282 | 1.0 | 6.0 | 0.00 | 0.00 | 0.00 | 47 | 1011.8 |
| 20260509205541 | 78 | 281 | 1.0 | 11.0 | 0.00 | 0.00 | 0.00 | 46 | 1011.8 |
| 20260509205330 | 79 | 196 | 1.0 | 11.0 | 0.00 | 0.00 | 0.00 | 46 | 1011.8 |
| 20260509204941 | 79 | 286 | 1.0 | 11.0 | 0.00 | 0.00 | 0.00 | 46 | 1011.8 |
| 20260509204735 | 79 | 282 | 2.0 | 11.0 | 0.00 | 0.00 | 0.00 | 46 | 1011.8 |
| 20260509204525 | 79 | 237 | 2.0 | 11.0 | 0.00 | 0.00 | 0.00 | 50 | 1011.9 |
| 20260509204318 | 78 | 220 | 2.0 | 11.0 | 0.00 | 0.00 | 0.00 | 46 | 1011.8 |
| 20260509204112 | 78 | 213 | 2.0 | 11.0 | 0.00 | 0.00 | 0.00 | 49 | 1011.8 |
| 20260509203908 | 78 | 202 | 1.0 | 11.0 | 0.00 | 0.00 | 0.00 | 48 | 1011.8 |
| 20260509203706 | 79 | 161 | 1.0 | 8.0 | 0.00 | 0.00 | 0.00 | 48 | 1011.8 |
| 20260509203502 | 79 | 167 | 1.0 | 8.0 | 0.00 | 0.00 | 0.00 | 49 | 1011.8 |
| 20260509203259 | 79 | 278 | 1.0 | 8.0 | 0.00 | 0.00 | 0.00 | 46 | 1011.9 |
| 20260509203053 | 79 | 271 | 1.0 | 8.0 | 0.00 | 0.00 | 0.00 | 47 | 1011.8 |
| 20260509202842 | 79 | 273 | 1.0 | 8.0 | 0.00 | 0.00 | 0.00 | 45 | 1011.9 |
| 20260509202630 | 79 | 217 | 1.0 | 8.0 | 0.00 | 0.00 | 0.00 | 48 | 1011.9 |
| 20260509202419 | 79 | 218 | 1.0 | 8.0 | 0.00 | 0.00 | 0.00 | 47 | 1011.8 |
| 20260509202208 | 79 | 298 | 1.0 | 8.0 | 0.00 | 0.00 | 0.00 | 47 | 1011.8 |
| 20260509202006 | 78 | 292 | 1.0 | 5.0 | 0.00 | 0.00 | 0.00 | 48 | 1011.8 |
| 20260509201755 | 78 | 302 | 1.0 | 5.0 | 0.00 | 0.00 | 0.00 | 45 | 1011.9 |
| 20260509201550 | 78 | 266 | 1.0 | 4.0 | 0.00 | 0.00 | 0.00 | 47 | 1011.9 |
| 20260509201340 | 78 | 254 | 1.0 | 8.0 | 0.00 | 0.00 | 0.00 | 47 | 1011.9 |
| 20260509201132 | 78 | 161 | 1.0 | 8.0 | 0.00 | 0.00 | 0.00 | 47 | 1011.8 |
| 20260509200921 | 79 | 188 | 1.0 | 8.0 | 0.00 | 0.00 | 0.00 | 47 | 1011.8 |
| 20260509200711 | 79 | 234 | 1.0 | 8.0 | 0.00 | 0.00 | 0.00 | 46 | 1011.9 |
| 20260509200501 | 78 | 234 | 2.0 | 8.0 | 0.00 | 0.00 | 0.00 | 48 | 1011.9 |
| 20260509200252 | 78 | 232 | 2.0 | 8.0 | 0.00 | 0.00 | 0.00 | 47 | 1011.9 |
| 20260509200040 | 78 | 229 | 2.0 | 8.0 | 0.00 | 0.00 | 0.00 | 47 | 1011.9 |
| 20260509195647 | 78 | 267 | 1.0 | 8.0 | 0.00 | 0.00 | 0.00 | 46 | 1012.0 |
| 20260509195443 | 78 | 289 | 0.0 | 9.0 | 0.00 | 0.00 | 0.00 | 47 | 1011.9 |
| 20260509195242 | 78 | 269 | 0.0 | 9.0 | 0.00 | 0.00 | 0.00 | 48 | 1011.9 |
| 20260509195036 | 78 | 269 | 0.0 | 9.0 | 0.00 | 0.00 | 0.00 | 46 | 1012.0 |
| 20260509194829 | 78 | 269 | 0.0 | 9.0 | 0.00 | 0.00 | 0.00 | 47 | 1012.0 |
| 20260509194627 | 78 | 269 | 0.0 | 9.0 | 0.00 | 0.00 | 0.00 | 46 | 1012.1 |